Location: D�derode
(51.8092°N, 10.1065°E)
Time: 05:42:50
(UTC+00:00)

CSL-04 Rocket - Pass Details

Date: 01 December 2020
Orbit: 807 x 859 km, 98.9° (Epoch: 23 January)

Event Time Altitude Azimuth Distance (km) Brightness Sun altitude
Exits shadow 17:44:06 51° 94° (E) 1,023 3.7 -22.4°
Maximum altitude 17:44:45 54° 67° (ENE) 983 3.6 -22.5°
Drops below altitude 10° 17:49:55 10° 351° (N) 2,406 6.1 -23.3°
Sets 17:52:18 0° 348° (NNW) 3,340 6.9 -23.7°
